Regional Weather Roundup
Issued by NWS Little Rock, AR

Home | Current Version | Previous Version | Text Only | Print | Product List | Glossary Off
Versions: 1 2 3 4 5 6 7 8 9 10 11 12 13 14 15 16 17 18 19 20 21 22 23 24 25 26 27 28 29 30 31 32 33 34 35 36 37 38 39 40 41 42 43 44 45 46 47 48 49 50

000
ASUS44 KLZK 051605
RWRLZK

WEATHER ROUNDUP FOR ARKANSAS
NATIONAL WEATHER SERVICE LITTLE ROCK AR
1100 AM CDT SUN JUL 05 2015

NOTE: "FAIR" INDICATES FEW OR NO CLOUDS BELOW 12,000 FEET WITH NO
SIGNIFICANT WEATHER AND/OR OBSTRUCTIONS TO VISIBILITY.

ARZ001-003-010-029-051700-
NORTHWEST ARKANSAS

CITY           SKY/WX    TMP DP  RH WIND       PRES   REMARKS
FAYETTEVILLE   MOSUNNY   81  73  76 SW9       30.05F HX  86
FORT SMITH     PTSUNNY   84  71  65 VRB5      30.02F HX  89
HARRISON       SUNNY     80  72  76 VRB6      30.07S
BENTONVILLE    PTSUNNY   82  72  69 SW12      30.07S HX  87
ROGERS         MOSUNNY   84  73  70 SW8       30.07S HX  91
SILOAM SPGS    MOSUNNY   82  70  65 SW12        N/A  HX  86
HIGHFILL       MOSUNNY   83  74  74 S8        30.05F HX  89
SPRINGDALE     MOSUNNY   82  73  74 SW10      30.07F HX  88
$$

ARZ004-005-016-051700-
NORTH CENTRAL ARKANSAS

CITY           SKY/WX    TMP DP  RH WIND       PRES   REMARKS
BATESVILLE     CLOUDY    77  72  83 E7        30.07S
FLIPPIN        CLOUDY    79  70  73 CALM      30.04S
MTN HOME       CLOUDY    76  71  85 VRB3      30.06F
$$

ARZ040-041-051700-
WEST CENTRAL ARKANSAS

CITY           SKY/WX    TMP DP  RH WIND       PRES   REMARKS
MENA           CLOUDY    82  77  83 W8        30.09S HX  91
MOUNT IDA      CLOUDY    81  73  76 VRB3      30.06R HX  86
$$

ARZ009-017-025-026-028-051700-
NORTHEAST ARKANSAS

CITY           SKY/WX    TMP DP  RH WIND       PRES   REMARKS
JONESBORO      CLOUDY    76  72  87 S7        30.08R
NEWPORT        CLOUDY    77  72  84 S8        30.09F
WALNUT RIDGE   PTSUNNY   79  72  78 SE6       30.07R
BLYTHEVILLE    PTSUNNY   80  73  79 SW9       30.08R
$$

ARZ022-023-033-042-044-051700-
CENTRAL ARKANSAS

CITY           SKY/WX    TMP DP  RH WIND       PRES   REMARKS
LITTLE ROCK    PTSUNNY   79  70  74 SW7       30.07S
N LITTLE ROCK  PTSUNNY   78  73  83 SE5       30.07S
JACKSONVILLE   MOSUNNY   80  71  73 VRB1      30.06F
SEARCY         CLOUDY    77  72  84 CALM      30.08F
HOT SPRINGS    CLOUDY    78  72  81 SW6       30.08S
RUSSELLVILLE   SUNNY     82  72  71 VRB7      30.05S HX  87
$$

ARZ036-051700-
EAST ARKANSAS

CITY           SKY/WX    TMP DP  RH WIND       PRES   REMARKS
WEST MEMPHIS   MOSUNNY   78  71  79 VRB3      30.06F
$$

ARZ050-053-066-070-073-051700-
SOUTHWEST ARKANSAS

CITY           SKY/WX    TMP DP  RH WIND       PRES   REMARKS
ARKADELPHIA    PTSUNNY   80  77  91 SW6       30.08S FOG     HX  85
CAMDEN         PTSUNNY   82  73  74 MISG      30.08S HX  88
TEXARKANA      PTSUNNY   83  74  74 SW12G18   30.07R HX  89
EL DORADO      PTSUNNY   80  74  81 SW8       30.09S HX  85
DE QUEEN       PTSUNNY   80  75  84 VRB3      30.05S HX  85
$$

ARZ056-057-069-051700-
SOUTHEAST ARKANSAS

CITY           SKY/WX    TMP DP  RH WIND       PRES   REMARKS
PINE BLUFF     CLOUDY    75  72  90 VRB5      30.09R
STUTTGART      CLOUDY    75  70  83 MISG      30.07R
MONTICELLO     CLOUDY    73  73 100 W5        30.11R FOG

$$





USA.gov is the U.S. government's official web portal to all federal, state and local government web resources and services.